Temperature
17 18 18 18 18 15 15 15 14 15 15 15 15 15 17 17 17 17 16 16 16 15 15 15 14 14 13 13 12 12 12 12 11 11 11 11 11 11 11 11 11 11 11 11
19 18 18 18 18 16 16 16 15 15 15 15 17 17 17 17 17 17 17 16 16 15 15 15 14 14 13 13 12 12 12 12 11 11 11 11 11 11 11 11 11 11 11 11
17 17 19 18 18 17 17 16 16 16 16 16 16 16 18 19 18 18 18 17 16 16 15 15 14 14 13 13 12 12 12 12 11 11 11 11 11 11 11 11 11 11 11 11
15 18 19 18 18 17 17 17 15 16 16 16 17 19 19 19 19 19 18 17 17 16 15 15 14 14 13 13 13 12 12 12 11 11 11 11 11 11 11 11 11 11 11 11
14 16 17 18 19 18 18 19 18 16 16 18 17 17 19 20 19 19 18 18 17 16 16 15 14 14 13 13 13 12 12 12 11 11 11 11 11 11 11 11 11 11 11 11
14 18 18 19 19 19 19 19 19 18 18 17 16 15 17 20 20 19 18 18 17 16 16 15 15 14 14 13 13 12 12 12 11 11 11 11 11 11 11 11 11 11 11 11
14 16 16 17 19 20 19 19 21 20 20 18 17 18 21 20 20 19 19 18 17 16 16 15 15 14 14 14 13 13 12 12 12 11 11 11 11 11 11 11 11 11 11 11
13 16 17 18 18 18 18 21 21 21 21 21 21 21 20 20 20 19 19 18 17 17 16 16 15 15 14 14 13 13 12 12 12 11 11 11 11 11 11 11 11 11 11 11
14 16 18 18 18 20 20 20 21 21 21 21 21 21 21 20 20 19 19 18 17 17 16 16 15 15 15 14 13 13 13 12 12 12 11 11 11 11 11 11 11 11 11 11
13 15 17 18 18 19 20 20 21 21 21 21 21 21 20 20 20 19 19 18 18 17 17 16 16 15 15 14 14 13 13 13 12 12 12 11 11 11 11 11 11 11 11 11
15 14 17 19 18 19 20 21 21 21 21 21 21 21 20 20 20 19 19 18 18 17 17 17 16 16 15 15 14 14 13 13 13 12 12 12 11 11 11 11 11 10 10 11
15 14 13 16 17 18 20 20 21 21 21 20 20 20 20 20 20 19 19 18 18 17 17 17 16 16 15 15 14 14 14 13 13 12 12 12 12 11 11 11 11 11 11 11
13 14 14 15 16 17 18 19 19 20 20 20 20 19 19 19 19 19 19 18 18 18 17 17 16 16 16 15 15 14 14 14 13 13 12 12 12 11 11 11 11 11 11 11
14 15 15 15 15 17 17 18 18 19 19 19 19 19 19 19 19 19 19 18 18 18 17 17 17 16 16 15 15 15 14 14 13 13 13 12 12 12 11 11 11 11 11 11
13 14 14 14 15 16 17 18 18 18 18 18 18 18 18 18 18 18 18 18 18 18 18 17 17 17 16 16 15 15 15 14 14 13 13 13 12 12 12 11 11 11 11 11
13 13 14 14 15 15 16 16 16 16 16 16 17 17 17 17 17 18 18 18 18 18 17 17 17 17 17 16 16 15 15 15 14 14 13 13 12 12 12 12 11 11 11 11
13 12 13 13 13 13 13 13 14 14 14 15 15 15 16 16 17 17 17 17 17 17 17 17 17 17 16 16 16 15 15 15 14 14 13 13 13 12 12 12 12 12 12 11
11 11 11 11 11 12 12 12 12 13 13 13 13 14 15 15 15 15 16 16 16 17 17 16 16 16 16 16 16 15 15 15 15 14 14 13 13 13 12 12 12 12 12 11
10 10 10 10 11 11 11 11 11 12 12 12 13 13 13 13 13 13 14 14 15 15 16 16 16 16 16 16 16 15 15 15 15 14 14 14 13 13 13 12 12 12 12 12
9 9 9 9 10 10 10 10 10 10 11 11 11 12 12 12 12 12 13 13 12 12 13 14 14 15 15 15 15 15 15 15 15 14 14 14 13 13 13 13 12 12 12 12
9 9 9 9 9 9 9 9 9 9 9 10 10 10 10 10 10 11 11 11 11 11 12 12 13 13 14 14 14 14 15 15 14 14 14 14 13 13 13 13 12 12 12 12
8 8 8 8 8 8 8 8 8 8 8 8 8 8 9 9 9 9 9 9 10 10 10 11 11 12 12 13 13 14 14 14 14 14 14 14 13 13 13 13 12 12 12 12
7 7 7 7 7 7 7 7 7 7 7 7 7 7 7 7 7 7 8 8 8 9 9 10 10 10 11 12 12 13 13 13 13 13 13 13 13 13 13 13 13 12 12 12
7 7 7 6 6 7 6 6 6 6 6 6 6 6 6 6 6 6 6 7 7 8 8 8 9 9 10 10 11 11 12 12 12 12 12 12 12 13 13 12 12 12 12 12
6 6 6 6 6 6 6 6 6 6 6 6 6 5 5 5 5 5 6 6 6 7 7 7 8 8 8 9 9 9 10 10 11 11 11 11 12 12 12 12 12 12 12 12
6 6 6 6 6 6 5 5 5 5 5 5 5 5 5 5 5 5 5 5 5 6 6 6 6 7 7 7 8 8 8 9 9 10 10 10 11 11 11 12 12 12 12 12
6 6 6 6 6 5 5 5 5 5 5 5 5 5 5 5 5 5 5 5 5 5 5 5 5 6 6 6 6 7 7 7 8 8 9 9 9 10 10 11 11 11 11 11
Wind_Speed
4 3 4 5 6 8 8 8 8 8 8 12 10 9 9 8 7 6 7 7 6 6 5 4 4 4 4 4 5 5 5 6 7 7 7 7 8 8 8 8 8 8 8 8
2 2 3 4 7 8 8 6 8 8 10 10 7 5 6 7 8 9 9 8 7 6 5 5 5 4 3 4 4 4 5 6 6 7 7 8 8 8 8 9 9 9 9 9
2 4 3 6 8 9 7 8 9 9 10 6 4 7 8 9 9 10 10 9 8 7 6 6 5 4 3 3 3 4 5 5 6 6 7 7 8 8 8 8 8 9 9 9
1 2 4 8 4 6 7 8 10 9 8 7 8 6 6 8 9 10 9 8 8 6 6 5 3 3 2 1 2 3 4 5 6 6 6 7 7 8 7 6 7 7 8 9
3 0 7 8 3 6 5 6 6 9 9 4 1 3 5 7 9 10 10 8 8 7 5 4 4 3 2 1 2 3 4 5 5 5 5 6 7 7 5 5 6 7 7 9
4 1 4 6 3 2 3 5 5 6 5 3 5 1 6 5 7 9 8 7 6 5 4 5 5 4 3 2 2 3 4 4 4 4 4 5 5 5 4 4 5 5 7 8
4 3 8 8 4 2 2 6 5 4 5 8 8 8 4 3 4 6 7 7 7 6 6 6 5 5 4 4 5 5 4 3 3 3 3 3 4 4 4 4 5 6 7 7
5 3 6 4 4 5 7 4 3 4 5 8 9 7 4 4 5 6 6 6 7 7 7 5 6 6 5 6 6 3 2 2 2 3 3 2 3 4 4 4 5 6 6 7
8 7 5 2 5 5 3 4 5 4 5 6 6 6 6 5 5 6 7 7 6 7 7 5 6 7 7 7 4 3 2 2 2 2 2 2 2 3 3 4 4 4 4 5
4 5 4 3 4 6 5 5 6 5 4 4 5 6 6 5 5 6 6 7 6 7 7 7 7 8 9 6 4 4 4 3 2 2 2 1 1 1 1 2 2 3 3 4
4 6 7 5 7 9 7 5 5 4 2 2 4 4 4 5 6 6 6 5 6 8 9 10 8 8 8 7 6 6 5 4 3 3 2 2 1 2 2 2 2 1 2 2
4 2 2 6 8 10 8 7 6 4 4 3 1 4 4 5 5 5 6 5 6 8 9 9 8 8 8 8 8 7 6 5 4 4 3 3 2 3 4 4 4 4 4 3
4 5 4 6 7 9 7 7 6 4 4 5 4 3 3 3 4 4 5 6 8 10 10 9 8 9 9 8 8 9 8 7 5 5 4 4 3 3 3 4 4 4 4 4
3 2 2 5 6 9 7 7 6 7 7 6 5 5 4 3 3 3 5 7 8 8 8 8 8 10 9 8 9 10 9 9 7 6 6 5 5 5 4 3 3 4 4 5
5 4 2 3 6 8 8 8 10 11 11 10 8 7 6 5 5 6 6 5 4 6 7 7 9 12 8 8 10 10 9 7 7 6 6 6 5 5 5 5 5 4 3 3
2 4 5 7 9 9 10 11 11 10 10 9 9 9 7 5 5 6 6 4 3 6 8 7 10 11 7 8 10 9 9 13 10 7 6 6 6 6 6 6 5 5 5 5
4 4 5 6 8 8 9 8 7 7 8 9 9 9 8 8 8 9 9 7 6 7 6 6 9 9 6 8 9 9 8 9 13 8 7 7 7 7 7 7 6 6 7 6
6 5 4 4 4 6 7 8 8 8 8 8 8 8 10 10 10 10 10 9 7 7 7 8 9 9 7 7 8 8 8 8 8 9 8 8 8 8 7 7 8 8 7 6
6 6 6 6 5 5 6 7 7 8 8 8 9 9 8 8 9 9 9 8 9 11 12 12 14 10 8 8 8 7 8 9 9 9 9 10 9 8 8 8 8 8 7 6
6 6 6 6 7 6 6 6 6 7 8 9 9 9 10 11 11 10 9 7 6 8 12 13 11 9 9 8 8 6 8 10 10 9 9 9 9 9 9 9 9 9 8 8
5 5 6 5 5 6 6 6 6 7 8 8 9 9 9 9 10 9 9 9 10 12 13 15 11 9 9 9 9 6 8 9 10 10 10 10 10 10 9 9 9 9 9 8
4 4 4 4 4 5 5 5 6 6 7 8 8 9 9 10 10 9 7 7 11 17 12 9 10 14 16 12 6 6 7 8 9 9 9 10 10 10 10 10 10 9 9 9
3 2 2 2 2 2 4 4 5 5 6 7 8 8 8 8 7 7 9 9 10 17 13 9 16 21 20 10 7 6 7 8 8 8 9 9 10 10 10 11 10 10 9 9
3 2 1 0 1 2 3 4 5 4 5 5 5 6 6 6 6 5 6 13 18 17 10 14 20 21 17 9 7 7 7 7 7 8 8 8 8 9 9 9 9 9 9 10
3 2 1 0 0 1 2 3 4 5 5 5 6 6 5 4 5 7 8 9 15 15 10 15 21 20 13 9 9 8 8 8 7 7 7 7 7 7 8 8 9 9 9 9
3 3 3 3 3 3 3 2 2 3 4 4 5 6 6 5 6 6 7 9 11 14 11 9 11 12 10 10 10 9 8 9 8 7 6 6 6 6 6 7 9 8 8 9
3 2 2 2 3 3 3 3 3 4 4 4 5 6 6 6 6 7 8 8 8 9 8 9 9 9 9 9 10 9 9 8 7 7 6 6 5 5 6 7 6 6 6 6
Wind_Direction
223 225 184 212 200 177 187 194 204 240 245 263 258 241 239 233 228 230 242 245 247 252 265 279 293 303 314 320 331 338 344 347 343 338 342 349 355 356 356 359 3 360 3 3
351 0 214 249 238 204 216 216 230 259 273 260 260 237 234 227 217 226 236 239 242 243 250 260 269 281 300 312 325 337 342 340 338 345 351 354 355 357 1 4 3 6 8 5
295 324 14 280 242 199 212 213 198 227 246 262 251 237 231 224 216 223 230 231 232 232 235 242 249 252 264 288 320 339 338 338 343 349 354 353 357 5 7 4 5 9 8 8
96 42 252 246 254 192 214 246 218 232 250 242 239 250 247 220 212 224 226 223 224 223 227 230 231 232 241 289 324 331 334 335 341 350 351 353 1 3 359 0 4 8 8 8
106 242 290 301 263 179 192 280 227 226 254 257 232 2 301 231 209 217 217 213 213 211 208 208 214 213 203 271 312 323 323 325 332 342 347 355 359 354 353 1 8 8 7 10
118 146 256 259 289 191 117 300 269 211 239 184 124 49 274 255 211 217 213 205 203 196 189 201 211 186 190 240 277 288 293 305 320 336 346 351 349 349 350 360 4 7 15 13
148 218 265 254 263 129 104 262 276 213 211 174 191 213 243 259 214 205 203 201 191 185 197 210 194 175 204 233 250 259 275 300 324 336 338 346 352 357 359 9 15 16 17 12
148 185 262 265 154 176 225 261 268 238 210 203 227 248 255 245 227 207 200 197 188 191 212 213 187 183 212 235 243 248 258 288 312 330 342 5 12 10 13 19 24 15 13 10
186 207 242 274 227 271 265 263 264 251 243 220 236 246 240 236 229 218 208 204 194 197 214 219 202 194 214 235 225 217 228 256 283 312 338 4 17 11 11 15 22 13 15 10
241 267 271 284 297 306 275 257 273 268 261 212 229 249 244 237 229 224 218 210 199 196 213 228 217 211 221 226 203 200 221 238 250 264 292 328 358 359 6 357 3 4 6 360
254 299 326 343 354 334 321 307 314 316 286 239 236 255 242 237 234 228 224 215 200 205 219 230 223 222 225 213 193 204 221 229 235 231 236 257 266 253 252 246 229 256 280 297
217 282 286 298 331 341 342 344 339 346 353 349 264 263 256 246 241 231 227 218 216 222 228 235 228 230 227 206 192 199 216 226 224 221 223 227 251 285 262 247 265 251 235 240
250 287 267 284 323 341 346 352 1 16 7 354 344 311 281 267 263 249 241 229 227 230 232 235 231 236 232 205 193 200 212 218 214 213 215 218 222 237 275 293 278 265 259 259
310 327 34 4 342 343 355 1 24 33 24 14 3 358 346 320 310 284 263 253 245 239 238 235 234 242 236 204 198 207 213 219 213 213 213 213 215 218 222 240 273 285 280 266
19 36 50 360 8 13 16 27 36 27 16 13 12 9 360 344 318 294 286 285 269 256 252 243 242 251 239 204 204 210 211 216 214 211 210 212 213 213 217 224 235 251 272 284
21 41 44 43 33 24 26 31 30 17 9 6 5 358 345 331 320 320 322 320 294 272 265 255 252 256 240 211 210 214 217 220 210 208 209 210 211 213 218 222 229 235 243 245
106 59 34 35 29 26 26 23 18 9 5 4 355 347 349 354 354 347 338 327 295 278 280 276 272 274 252 222 215 218 217 221 215 208 210 212 213 216 219 219 224 231 239 231
98 96 86 74 51 35 24 19 16 12 6 354 352 2 8 6 352 338 334 336 336 326 319 309 301 295 272 244 228 223 218 216 210 211 213 214 216 217 215 219 224 231 240 239
85 81 70 61 54 49 33 19 11 7 4 4 7 7 2 357 346 339 340 352 353 339 329 322 316 309 291 267 246 229 222 219 216 216 214 217 218 217 216 219 224 227 229 227
83 76 70 60 50 46 34 17 12 15 10 7 9 8 4 357 351 348 348 346 338 323 321 327 324 313 301 291 271 242 229 225 222 220 216 215 217 221 221 221 223 226 226 225
95 82 72 61 49 38 28 16 17 14 7 10 12 3 352 345 347 350 352 345 337 332 332 333 332 321 313 307 285 258 239 233 228 224 221 220 221 222 222 223 224 225 225 225
110 93 77 59 45 26 9 9 13 10 7 7 6 0 355 351 347 345 340 327 326 336 338 332 331 329 329 318 296 272 252 242 237 231 226 223 222 222 223 223 224 225 224 223
133 118 92 59 33 358 353 1 3 2 1 357 355 352 346 337 336 341 337 332 330 338 340 331 336 337 336 328 314 298 277 257 246 240 235 231 228 226 225 224 224 223 223 222
151 154 172 232 41 23 354 334 335 337 334 332 333 332 331 333 331 325 313 327 339 341 338 336 342 345 344 339 327 318 308 291 269 254 247 242 237 233 230 228 226 224 223 223
172 183 194 183 287 277 279 302 322 328 330 325 320 318 315 306 303 311 318 325 337 343 337 340 346 346 345 338 335 327 319 311 303 282 259 251 246 241 239 235 232 229 226 224
187 203 222 227 231 246 260 273 286 295 303 309 312 310 312 310 307 310 317 323 328 337 338 334 337 341 341 338 334 331 326 322 317 310 295 275 261 252 249 245 242 238 234 230
213 222 238 265 264 243 240 244 256 273 276 280 293 301 307 312 314 317 318 321 324 326 328 330 332 334 336 336 335 333 331 327 324 319 313 301 287 272 265 257 253 249 245 241
Height
1547 1545 1546 1546 1548 1553 1556 1558 1563 1555 1551 1539 1532 1530 1529 1530 1531 1532 1533 1533 1534 1534 1533 1532 1531 1529 1527 1524 1521 1518 1515 1512 1508 1505 1502 1499 1495 1492 1489 1485 1482 1479 1475 1472
1545 1543 1544 1545 1543 1547 1549 1549 1550 1548 1544 1529 1527 1527 1527 1527 1528 1529 1530 1531 1531 1532 1532 1531 1530 1528 1526 1524 1521 1518 1515 1512 1509 1507 1503 1500 1497 1494 1490 1487 1484 1481 1477 1474
1554 1548 1544 1549 1539 1541 1541 1539 1541 1543 1535 1526 1526 1524 1524 1524 1525 1526 1527 1528 1529 1530 1530 1529 1529 1527 1525 1523 1521 1518 1516 1513 1510 1508 1505 1502 1498 1495 1492 1489 1486 1483 1480 1477
1558 1551 1556 1544 1530 1531 1533 1532 1531 1529 1525 1524 1523 1522 1522 1522 1522 1523 1524 1526 1527 1527 1528 1528 1527 1526 1525 1523 1521 1519 1516 1514 1511 1509 1506 1503 1500 1497 1494 1492 1489 1486 1483 1479
1563 1559 1554 1537 1527 1528 1531 1529 1523 1524 1521 1521 1521 1521 1520 1519 1520 1521 1522 1524 1525 1526 1526 1526 1526 1525 1524 1522 1520 1518 1516 1514 1512 1510 1507 1504 1502 1499 1496 1494 1491 1488 1485 1482
1561 1555 1555 1537 1525 1524 1528 1530 1520 1519 1519 1520 1521 1526 1521 1517 1518 1519 1520 1522 1523 1524 1524 1524 1524 1524 1523 1521 1520 1518 1517 1515 1513 1510 1508 1506 1503 1501 1498 1496 1493 1491 1488 1485
1559 1557 1549 1529 1524 1526 1537 1533 1518 1517 1517 1517 1518 1518 1517 1516 1516 1517 1518 1520 1521 1522 1522 1523 1523 1522 1521 1520 1519 1518 1517 1515 1513 1511 1509 1507 1504 1502 1500 1498 1496 1493 1491 1488
1558 1556 1548 1523 1523 1527 1526 1518 1517 1516 1515 1515 1515 1515 1515 1515 1515 1516 1517 1518 1519 1520 1520 1521 1521 1521 1520 1519 1519 1517 1516 1515 1513 1511 1509 1508 1506 1503 1501 1499 1497 1495 1493 1491
1541 1538 1526 1523 1522 1520 1519 1517 1516 1515 1514 1514 1513 1513 1513 1513 1514 1514 1515 1516 1517 1517 1518 1519 1519 1519 1518 1518 1517 1516 1515 1514 1513 1511 1510 1508 1506 1504 1502 1501 1499 1497 1495 1493
1532 1525 1521 1520 1519 1517 1516 1515 1514 1513 1512 1512 1511 1511 1511 1511 1512 1512 1513 1514 1514 1515 1516 1516 1516 1516 1516 1516 1516 1515 1514 1513 1512 1511 1509 1508 1507 1505 1503 1502 1500 1498 1497 1495
1527 1522 1519 1517 1516 1515 1513 1513 1512 1511 1511 1510 1510 1510 1510 1509 1510 1510 1511 1512 1512 1512 1513 1513 1514 1514 1514 1514 1514 1513 1512 1512 1511 1510 1509 1508 1506 1505 1504 1502 1501 1500 1498 1497
1525 1523 1522 1519 1517 1515 1513 1511 1511 1510 1509 1509 1509 1508 1508 1508 1508 1508 1509 1509 1509 1510 1510 1510 1511 1511 1511 1511 1511 1510 1510 1510 1509 1508 1507 1506 1505 1505 1504 1502 1501 1500 1499 1498
1521 1520 1520 1519 1517 1515 1513 1511 1510 1509 1508 1508 1507 1507 1506 1506 1506 1506 1506 1506 1506 1506 1507 1507 1507 1507 1508 1508 1508 1507 1507 1507 1506 1506 1505 1505 1504 1503 1502 1502 1501 1500 1499 1498
1518 1518 1518 1517 1516 1514 1512 1511 1510 1509 1508 1507 1506 1505 1505 1504 1504 1503 1503 1503 1503 1503 1503 1503 1503 1503 1504 1504 1504 1503 1503 1503 1503 1503 1502 1502 1501 1501 1500 1500 1499 1499 1498 1497
1517 1516 1517 1516 1515 1513 1511 1510 1508 1507 1506 1505 1504 1503 1503 1502 1501 1501 1500 1500 1499 1499 1499 1498 1498 1498 1499 1499 1499 1499 1499 1499 1499 1499 1499 1498 1498 1498 1497 1497 1497 1496 1496 1496
1515 1516 1515 1514 1513 1511 1510 1508 1507 1506 1505 1504 1503 1502 1501 1500 1499 1498 1497 1496 1495 1494 1494 1494 1493 1493 1494 1493 1493 1493 1493 1493 1494 1494 1494 1494 1494 1494 1494 1493 1493 1493 1493 1493
1513 1513 1513 1512 1512 1511 1509 1508 1508 1507 1505 1504 1503 1501 1500 1498 1496 1495 1494 1493 1492 1491 1490 1489 1488 1488 1487 1487 1487 1487 1487 1488 1488 1488 1488 1488 1488 1489 1489 1489 1489 1489 1489 1490
1512 1513 1513 1512 1512 1511 1510 1509 1508 1506 1505 1503 1502 1500 1498 1495 1494 1492 1490 1489 1487 1486 1485 1483 1482 1481 1481 1480 1480 1480 1481 1481 1481 1481 1482 1482 1483 1483 1483 1484 1484 1484 1485 1486
1512 1512 1512 1512 1511 1511 1509 1508 1507 1506 1504 1502 1500 1498 1496 1494 1492 1490 1488 1486 1483 1481 1479 1478 1476 1475 1474 1474 1473 1473 1473 1473 1474 1474 1475 1476 1476 1477 1477 1477 1478 1479 1479 1480
1511 1512 1512 1511 1511 1510 1509 1508 1506 1505 1503 1501 1499 1497 1495 1492 1490 1488 1486 1483 1481 1479 1476 1473 1471 1469 1467 1467 1466 1465 1465 1465 1466 1466 1467 1468 1469 1469 1470 1471 1471 1472 1473 1474
1510 1511 1511 1510 1510 1509 1508 1507 1505 1503 1502 1500 1497 1495 1493 1491 1489 1486 1482 1480 1478 1475 1472 1469 1466 1463 1461 1460 1459 1458 1457 1457 1457 1458 1459 1460 1461 1462 1462 1463 1464 1465 1466 1467
1509 1509 1509 1509 1509 1508 1507 1506 1504 1503 1501 1498 1496 1494 1491 1489 1486 1484 1481 1479 1475 1472 1468 1465 1462 1459 1456 1454 1452 1450 1449 1449 1449 1450 1450 1451 1452 1453 1454 1455 1456 1457 1458 1459
1507 1508 1508 1508 1507 1507 1506 1505 1503 1502 1499 1497 1495 1493 1490 1488 1485 1482 1478 1475 1472 1469 1465 1461 1458 1454 1451 1448 1446 1444 1442 1441 1441 1441 1442 1442 1443 1444 1446 1447 1448 1449 1450 1451
1505 1506 1506 1506 1506 1505 1504 1503 1502 1500 1499 1497 1494 1492 1489 1487 1484 1481 1478 1474 1470 1466 1462 1458 1454 1450 1446 1443 1440 1438 1436 1435 1434 1433 1433 1434 1435 1435 1437 1438 1439 1440 1442 1443
1503 1504 1504 1504 1503 1503 1502 1501 1500 1499 1497 1495 1493 1491 1488 1485 1482 1479 1475 1472 1468 1464 1459 1455 1451 1447 1443 1439 1436 1433 1431 1429 1428 1427 1426 1426 1426 1427 1428 1429 1430 1431 1433 1434
1501 1501 1501 1501 1501 1500 1500 1499 1498 1496 1495 1493 1491 1488 1486 1483 1480 1477 1474 1470 1466 1462 1457 1453 1449 1444 1440 1437 1433 1430 1427 1424 1422 1421 1420 1419 1419 1419 1420 1421 1421 1423 1424 1425
1498 1498 1498 1498 1498 1498 1497 1496 1495 1493 1492 1490 1488 1485 1483 1481 1478 1475 1471 1468 1464 1460 1455 1451 1447 1442 1438 1434 1431 1427 1424 1421 1418 1416 1415 1414 1413 1413 1413 1413 1414 1414 1415 1416